This demonstration page uses our WeatherBlox Daily Observations layout. Learn more.

Left ArrowRight Arrow

Hourly Observations for November 9, 2020

Temp ( °F °C ) Dew Point ( °F °C ) Humidity (%) Winds ( mph kmh ) Pressure ( in mb ) Visibility ( mi km ) Precip ( " mm )
12:52 am 00:52 Partly Cloudy 65 18.3 57 13.9 76 76 S 16 26 29.83 1010 10 16 0.00 0.00
1:52 am 01:52 Mostly Cloudy 64 17.8 57 13.9 78 78 SSE 17 28 29.81 1010 10 16 0.00 0.00
2:34 am 02:34 Cloudy 65 18.3 58 14.4 78 78 S 21 33 29.80 1009 10 16 0.00 0.00
2:52 am 02:52 Cloudy 65 18.3 58 14.4 78 78 S 18 30 29.79 1009 10 16 0.00 0.00
2:59 am 02:59 Cloudy 65 18.3 58 14.4 78 78 S 20 31 29.79 1009 10 16 0.00 0.00
3:41 am 03:41 Cloudy 65 18.3 58 14.4 78 78 SSE 18 30 29.78 1008 10 16 0.00 0.00
3:52 am 03:52 Cloudy 65 18.3 58 14.4 78 78 SSE 21 33 29.78 1008 10 16 0.00 0.00
4:52 am 04:52 Cloudy 64 17.8 58 14.4 81 81 S 16 26 29.77 1008 10 16 0.00 0.00
5:52 am 05:52 Cloudy 65 18.3 59 15 81 81 S 21 33 29.75 1008 10 16 0.00 0.00
6:52 am 06:52 Cloudy 66 18.9 58 14.4 75 75 S 20 31 29.75 1007 10 16 0.00 0.00
7:52 am 07:52 Cloudy 66 18.9 59 15 78 78 S 17 28 29.78 1008 10 16 0.00 0.00
8:52 am 08:52 Cloudy with Light Rain 66 18.9 59 15 78 78 S 18 30 29.77 1008 10 16 0.00 0.00
9:52 am 09:52 Cloudy 67 19.4 59 15 76 76 S 14 22 29.77 1008 10 16 0.00 0.00
10:52 am 10:52 Cloudy with Light Rain 67 19.4 60 15.6 79 79 S 14 22 29.76 1008 8 13 0.00 0.00
11:52 am 11:52 Cloudy 66 18.9 61 16.1 84 84 S 8 13 29.77 1008 10 16 0.02 0.51
12:29 pm 12:29 Cloudy with Light Rain 45 7.2 43 6.1 93 93 N 20 31 29.83 1010 10 16 0.00 0.00
12:40 pm 12:40 Cloudy with Light Rain 43 6.1 41 5 93 93 NNW 21 33 29.85 1011 10 16 0.00 0.00
12:52 pm 12:52 Cloudy with Light Rain 43 6.1 41 5 93 93 N 17 28 29.82 1010 10 16 0.00 0.00
1:52 pm 13:52 Cloudy with Light Rain 41 5 38 3.3 89 89 NNW 20 31 29.85 1011 7 11 0.00 0.00
2:52 pm 14:52 Cloudy 39 3.9 37 2.8 93 93 NNW 16 26 29.86 1011 10 16 0.00 0.00
3:52 pm 15:52 Cloudy 39 3.9 36 2.2 89 89 NNW 22 35 29.88 1012 10 16 0.00 0.00
4:52 pm 16:52 Cloudy 37 2.8 35 1.7 93 93 N 17 28 29.90 1013 9 14 0.00 0.00
5:52 pm 17:52 Cloudy with Drizzle 36 2.2 34 1.1 93 93 N 16 26 29.92 1013 7 11 0.00 0.00
6:52 pm 18:52 Cloudy with Heavy Rain 35 1.7 34 1.1 96 96 NNW 16 26 29.94 1014 4 6 0.03 0.76
7:23 pm 19:23 Cloudy with Heavy Rain 35 1.7 34 1.1 96 96 N 18 30 29.97 1015 3 4 0.07 1.78
7:39 pm 19:39 Cloudy with Light Rain 35 1.7 33 0.6 93 93 NNW 16 26 29.98 1015 6 10 0.21 5.33
7:52 pm 19:52 Cloudy with Light Rain 35 1.7 33 0.6 93 93 NNW 18 30 29.91 1013 6 10 0.21 5.33
8:52 pm 20:52 Cloudy with Light Rain 35 1.7 33 0.6 93 93 N 17 28 29.91 1013 7 11 0.00 0.00
9:52 pm 21:52 Cloudy with Drizzle 34 1.1 32 0 92 92 NNW 18 30 29.93 1014 3 5 0.01 0.25
10:52 pm 22:52 Cloudy with Light Rain 33 0.6 32 0 96 96 N 17 28 29.89 1012 5 8 0.00 0.00
11:21 pm 23:21 Cloudy with Light Rain 33 0.6 32 0 96 96 N 15 24 29.94 1014 3 5 0.03 0.76
11:52 pm 23:52 Cloudy with Light Rain 34 1.1 32 0 92 92 N 14 22 29.87 1012 4 6 0.05 1.27

Powered by AerisWeather